Paynesville, MN

6:01 PM CDT on April 23, 2017 (GMT -0500)
Paynesville

Weather History for KPEX - February, 2014

Change the Weather History Date:

Thursday, February 27, 2014

  Actual Average (KLJF) Record (KLJF)
Temperature  
Mean Temperature -12 °F -  
Max Temperature -4 °F 35 °F 60 °F (2016)
Min Temperature -20 °F 16 °F -17 °F (1956)
Degree Days  
Heating Degree Days 77    
Moisture  
Dew Point -25 °F    
Average Humidity 52    
Maximum Humidity 61    
Minimum Humidity 36    
Precipitation  
Precipitation 0.00 in - - ()
Sea Level Pressure  
Sea Level Pressure 30.09 in    
Wind  
Wind Speed 4 mph (SW)    
Max Wind Speed 17 mph    
Max Gust Speed 25 mph    
Visibility 10 miles    
Events      
Averages and records for this station are not official NWS values.
T = Trace of Precipitation, MM = Missing Value Source: NWS Daily Summary

Daily Weather History Graph

Daily Weather History Graph

Search for Another Location

Airport or City:

Trip Planner

Search our weather history database for the weather conditions in past years. The results will help you decide how hot, cold, wet, or windy it might be!

Date:

Astronomy

Feb. 27, 2014 Rise Set
Actual Time 7:00 AM CST 6:03 PM CST
Civil Twilight 6:30 AM CST 6:33 PM CST
Nautical Twilight 5:56 AM CST 7:07 PM CST
Astronomical Twilight 5:22 AM CST 7:41 PM CST
Moon 5:37 AM CST (2/27) 4:27 PM CST (2/27)
Length of Visible Light 12h 02m
Length of Day
11h 02m
Waning Crescent, 4% of the Moon is Illuminated
Feb 27
Waning Crescent
Mar 1
New
Mar 8
First Quarter
Mar 16
Full
Mar 23
Last Quarter

Hourly Weather History & Observations

Time (CST) Temp. Windchill Dew Point Humidity Pressure Visibility Wind Dir Wind Speed Gust Speed Precip Events Conditions
12:11 AM -8.1 °F -31.2 °F -20.9 °F 54% 29.97 in 10.0 mi NNW 17.3 mph 25.3 mph N/A   Clear
12:32 AM -8.7 °F -25.9 °F -21.5 °F 54% 29.99 in 10.0 mi NW 9.2 mph 16.1 mph N/A   Clear
12:52 AM -9.8 °F -30.2 °F -21.3 °F 57% 30.00 in 10.0 mi NW 12.7 mph 19.6 mph N/A   Clear
1:13 AM -10.3 °F - -21.6 °F 57% 30.01 in 10.0 mi Calm Calm - N/A   Clear
1:33 AM -11.2 °F -31.1 °F -23.8 °F 54% 30.02 in 10.0 mi NW 11.5 mph - N/A   Clear
1:52 AM -12.1 °F - -24.7 °F 54% 30.03 in 10.0 mi Calm Calm - N/A   Clear
2:12 AM -12.6 °F - -25.6 °F 53% 30.04 in 10.0 mi Calm Calm - N/A   Clear
2:32 AM -13.4 °F - -26.0 °F 53% 30.05 in 10.0 mi Calm Calm - N/A   Clear
2:52 AM -13.9 °F - -26.9 °F 52% 30.06 in 10.0 mi Calm Calm - N/A   Clear
3:12 AM -15.0 °F - -27.2 °F 54% 30.06 in 10.0 mi Calm Calm - N/A   Clear
3:32 AM -15.9 °F - -27.0 °F 57% 30.07 in 10.0 mi Calm Calm - N/A   Clear
3:52 AM -15.7 °F - -27.2 °F 56% 30.08 in 10.0 mi Calm Calm - N/A   Clear
4:12 AM -15.9 °F - -27.4 °F 56% 30.08 in 10.0 mi Calm Calm - N/A   Clear
4:32 AM -16.4 °F - -27.8 °F 57% 30.09 in 10.0 mi Calm Calm - N/A   Clear
4:52 AM -16.6 °F - -28.1 °F 56% 30.09 in 10.0 mi Calm Calm - N/A   Clear
5:12 AM -16.8 °F - -28.3 °F 56% 30.11 in 10.0 mi Calm Calm - N/A   Clear
5:32 AM -16.8 °F - -28.3 °F 56% 30.12 in 10.0 mi Calm Calm - N/A   Clear
5:52 AM -18.0 °F - -29.0 °F 57% 30.13 in 10.0 mi Calm Calm - N/A   Clear
6:12 AM -18.0 °F - -28.8 °F 58% 30.13 in 10.0 mi Calm Calm - N/A   Clear
6:33 AM -18.6 °F - -29.2 °F 58% 30.13 in 10.0 mi Calm Calm - N/A   Clear
6:52 AM -20.2 °F - -30.3 °F 60% 30.13 in 10.0 mi Calm Calm - N/A   Clear
7:12 AM -19.5 °F - -29.6 °F 60% 30.13 in 10.0 mi Calm Calm - N/A   Clear
7:32 AM -20.9 °F - -31.0 °F 60% 30.14 in 10.0 mi Calm Calm - N/A   Clear
7:52 AM -20.7 °F - -30.6 °F 60% 30.15 in 10.0 mi Calm Calm - N/A   Clear
8:13 AM -20.2 °F - -30.5 °F 59% 30.16 in 10.0 mi Calm Calm - N/A   Clear
8:32 AM -18.6 °F - -28.5 °F 61% 30.16 in 10.0 mi Calm Calm - N/A   Clear
8:52 AM -15.9 °F - -27.6 °F 56% 30.17 in 10.0 mi Calm Calm - N/A   Clear
9:13 AM -15.0 °F - -27.2 °F 54% 30.17 in 10.0 mi Calm Calm - N/A   Clear
9:33 AM -14.6 °F - -26.5 °F 55% 30.17 in 10.0 mi Calm Calm - N/A   Clear
9:52 AM -13.9 °F - -26.3 °F 54% 30.17 in 10.0 mi Calm Calm - N/A   Clear
10:12 AM -13.0 °F - -26.0 °F 53% 30.17 in 10.0 mi Calm Calm - N/A   Clear
10:32 AM -12.3 °F - -26.0 °F 51% 30.17 in 10.0 mi Calm Calm - N/A   Clear
10:52 AM -11.6 °F - -25.8 °F 49% 30.17 in 10.0 mi Calm Calm - N/A   Clear
11:11 AM -11.4 °F - -26.1 °F 48% 30.18 in 10.0 mi Calm Calm - N/A   Clear
11:32 AM -11.2 °F - -26.1 °F 48% 30.18 in 10.0 mi Calm Calm - N/A   Clear
11:52 AM -10.3 °F - -26.0 °F 46% 30.17 in 10.0 mi Calm Calm - N/A   Clear
12:12 PM -10.1 °F - -25.6 °F 47% 30.17 in 10.0 mi Calm Calm - N/A   Clear
12:32 PM -9.0 °F -18.2 °F -24.0 °F 48% 30.16 in 10.0 mi NW 3.5 mph - N/A   Clear
12:52 PM -8.5 °F -17.6 °F -24.3 °F 46% 30.15 in 10.0 mi North 3.5 mph - N/A   Clear
1:12 PM -8.1 °F - -24.9 °F 44% 30.14 in 10.0 mi Calm Calm - N/A   Clear
1:32 PM -7.6 °F - -24.3 °F 44% 30.13 in 10.0 mi Calm Calm - N/A   Clear
1:52 PM -6.9 °F - -24.9 °F 41% 30.12 in 10.0 mi Calm Calm - N/A   Clear
2:12 PM -6.3 °F - -27.2 °F 36% 30.12 in 10.0 mi Calm Calm - N/A   Clear
2:32 PM -6.0 °F - -24.0 °F 42% 30.11 in 10.0 mi Calm Calm - N/A   Clear
2:52 PM -5.8 °F - -23.4 °F 42% 30.10 in 10.0 mi Calm Calm - N/A   Clear
3:12 PM -5.3 °F - -22.9 °F 42% 30.09 in 10.0 mi Calm Calm - N/A   Clear
3:31 PM -4.5 °F - -22.2 °F 43% 30.09 in 10.0 mi Calm Calm - N/A   Clear
3:52 PM -4.5 °F - -22.0 °F 43% 30.09 in 10.0 mi Calm Calm - N/A   Clear
4:12 PM -4.2 °F - -21.5 °F 43% 30.08 in 10.0 mi Calm Calm - N/A   Clear
4:32 PM -4.9 °F - -21.3 °F 45% 30.08 in 10.0 mi Calm Calm - N/A   Clear
4:52 PM -4.2 °F - -22.4 °F 42% 30.07 in 10.0 mi Calm Calm - N/A   Clear
5:12 PM -4.9 °F - -22.7 °F 42% 30.06 in 10.0 mi Calm Calm - N/A   Clear
5:33 PM -5.4 °F - -22.9 °F 43% 30.06 in 10.0 mi Calm Calm - N/A   Clear
5:52 PM -6.0 °F - -21.5 °F 47% 30.06 in 10.0 mi Calm Calm - N/A   Clear
6:12 PM -7.1 °F - -22.0 °F 48% 30.06 in 10.0 mi Calm Calm - N/A   Clear
6:33 PM -8.0 °F - -22.4 °F 50% 30.06 in 10.0 mi Calm Calm - N/A   Clear
6:53 PM -8.5 °F - -22.9 °F 49% 30.06 in 10.0 mi Calm Calm - N/A   Clear
7:12 PM -9.4 °F - -23.8 °F 49% 30.06 in 10.0 mi Calm Calm - N/A   Clear
7:32 PM -9.6 °F - -23.3 °F 51% 30.05 in 10.0 mi Calm Calm - N/A   Scattered Clouds
7:53 PM -10.8 °F - -23.6 °F 53% 30.04 in 10.0 mi Calm Calm - N/A   Scattered Clouds
8:12 PM -10.3 °F - -23.1 °F 53% 30.04 in 10.0 mi Calm Calm - N/A   Clear
8:32 PM -11.0 °F - -22.9 °F 56% 30.03 in 10.0 mi Calm Calm - N/A   Scattered Clouds
8:52 PM -10.5 °F -25.6 °F -22.4 °F 56% 30.04 in 10.0 mi SSE 6.9 mph - N/A   Mostly Cloudy
9:12 PM -9.8 °F -26.1 °F -22.0 °F 55% 30.04 in 10.0 mi SSE 8.1 mph - N/A   Overcast
9:32 PM -9.4 °F -25.6 °F -21.1 °F 57% 30.02 in 10.0 mi SE 8.1 mph - N/A   Overcast
9:52 PM -8.9 °F -23.6 °F -20.6 °F 57% 30.02 in 10.0 mi SE 6.9 mph - N/A   Overcast
10:13 PM -8.3 °F - -20.6 °F 55% 30.01 in 10.0 mi Calm Calm - N/A   Overcast
10:32 PM -8.0 °F - -20.2 °F 55% 30.01 in 10.0 mi Calm Calm - N/A   Overcast
10:52 PM -7.6 °F -18.8 °F -19.7 °F 56% 30.01 in 10.0 mi SSE 4.6 mph - N/A   Overcast
11:12 PM -7.1 °F -25.0 °F -19.7 °F 54% 30.00 in 10.0 mi SSE 10.4 mph - N/A   Overcast
11:32 PM -7.2 °F - -19.7 °F 55% 29.99 in 10.0 mi Calm Calm - N/A   Overcast
11:52 PM -7.6 °F - -20.0 °F 55% 29.98 in 10.0 mi Calm Calm - N/A   Overcast